RH
17 19 21 22 25 27 32 37 42 40 42 53 63 66 65 60 57 50 46 42 40 41 43 51 64 71 73 71 65 60 60 62 67 72 77 74 71 72 72 75 82 89 88
16 17 18 20 23 25 28 32 36 37 38 44 54 64 68 69 67 62 58 58 50 41 40 42 49 60 72 70 69 64 57 56 57 60 63 64 64 66 68 73 72 73 83
16 16 17 19 21 23 25 28 31 32 33 37 44 55 62 67 69 67 63 61 58 54 44 45 48 60 65 67 67 70 67 59 54 51 53 58 60 60 59 61 62 68 73
15 16 17 18 20 21 24 26 26 28 31 32 36 45 54 62 67 68 69 68 63 59 56 57 56 57 63 73 73 76 77 67 59 53 49 46 46 47 50 54 60 64 65
15 15 16 16 19 20 22 23 25 26 28 30 32 37 45 53 59 63 67 70 70 68 65 63 58 57 61 63 70 73 74 72 68 61 58 55 52 47 44 42 43 50 59
14 14 15 16 17 17 19 21 24 25 27 28 29 30 34 43 52 54 57 63 68 69 68 67 67 61 60 60 62 63 67 70 70 68 65 64 62 61 58 52 46 45 48
15 15 16 16 16 17 17 20 22 24 26 27 27 26 27 34 42 44 42 46 58 66 68 67 69 72 69 65 58 59 62 62 65 67 69 72 71 68 65 61 54 50 48
17 17 19 18 17 18 19 20 22 25 27 28 28 29 29 30 34 38 36 37 41 49 60 68 71 72 74 73 70 71 69 63 54 52 57 63 68 76 75 68 64 57 52
19 20 20 20 19 19 20 21 23 25 26 28 28 29 30 31 34 37 37 36 38 41 44 50 64 75 77 78 75 72 74 74 74 72 62 53 56 57 66 76 75 70 68
19 20 19 18 19 20 21 21 23 25 26 27 28 28 29 32 32 39 38 34 36 38 42 44 48 58 71 79 78 78 77 74 75 76 76 74 66 60 57 48 54 74 79
17 17 18 19 19 20 21 22 23 25 26 27 28 29 30 31 31 32 38 34 33 34 37 42 46 52 52 62 76 79 81 79 77 75 74 77 80 79 77 70 63 54 46
17 17 18 18 19 21 22 23 24 26 27 28 30 32 33 34 34 33 33 34 34 32 35 38 42 47 50 51 59 74 78 80 81 82 81 80 78 77 79 82 84 83 78
20 18 19 20 20 20 22 24 25 27 28 30 33 35 37 39 40 39 38 37 36 36 36 37 41 43 46 50 53 56 70 78 82 83 84 84 85 84 84 84 84 85 86
22 22 21 21 22 23 24 25 26 28 29 32 34 37 39 42 44 45 45 45 43 40 40 40 40 42 45 47 49 53 55 63 71 81 81 80 81 83 85 87 88 91 93
23 24 24 23 23 24 25 26 27 29 31 33 35 37 40 42 44 45 46 48 48 48 47 46 48 50 52 48 48 50 51 55 59 63 76 84 83 84 84 85 87 88 90
21 23 25 25 25 25 25 27 28 30 32 34 36 38 40 41 43 44 45 46 48 49 50 53 55 58 61 56 52 49 50 50 51 57 62 66 75 81 85 86 87 90 91
18 21 24 26 27 28 29 30 30 31 32 34 36 37 39 40 41 43 44 46 47 47 49 53 58 68 72 66 59 53 52 51 49 50 52 58 66 72 73 76 79 81 84
16 18 21 24 26 27 28 29 31 33 34 36 37 37 38 38 39 40 41 42 43 46 48 51 55 64 77 80 72 63 56 51 53 50 48 49 54 58 63 66 68 70 72
16 17 18 20 22 24 25 27 28 28 29 29 30 32 32 33 34 35 35 35 36 40 42 46 51 56 66 81 84 76 66 57 53 54 52 50 52 56 59 63 65 67 69
18 18 18 19 20 21 22 23 24 25 26 26 27 27 27 29 30 30 31 30 30 31 31 37 44 49 53 62 86 88 75 68 57 54 53 49 48 50 52 56 59 62 64
23 21 21 21 21 21 22 22 23 24 26 27 28 29 29 29 29 29 29 27 26 27 30 33 34 42 48 52 64 92 90 75 67 56 54 50 47 48 49 50 55 59 61
27 25 23 23 23 23 23 23 24 24 27 29 30 31 31 32 32 32 32 30 30 30 29 31 34 37 41 49 56 70 93 86 74 62 54 51 47 46 47 48 50 55 58
29 28 26 25 25 26 25 25 26 27 29 31 32 32 33 35 35 33 31 28 27 27 29 31 33 37 39 45 51 60 82 89 80 69 56 51 47 45 44 44 45 48 52
31 33 31 30 28 28 28 30 32 33 35 37 39 40 40 37 33 30 27 26 27 28 29 31 33 35 37 41 47 56 70 86 80 72 61 51 46 44 42 42 41 44 47
31 32 34 34 33 33 34 34 35 38 39 40 41 39 34 30 30 29 27 26 27 28 29 31 32 34 36 39 44 50 65 87 81 74 65 57 47 43 41 40 39 40 43
31 33 34 35 36 37 37 36 37 37 36 33 30 30 30 29 29 28 26 26 26 27 30 31 32 34 35 37 42 48 61 80 79 76 69 63 56 46 40 38 37 38 39